SL-24 R/B

Satellite information

Favourite Embed

Satellite Type and Status

ROCKET BODYIN ORBIT

Key statistics

Satellite SL-24 R/B at a glance.

Uptime

7838

Days in orbit

Revolutions

≈ 13.9

Per day

Orbit

SSO

Sun Synchronous Orbit

Inclination

98.2

Latest

Satellite identification and parameters

Extended collection of information and parameters for SL-24 R/B.

Object identification

Identified? True

Debris? False

Object name: SL-24 R/B

International designator: 2004-025B

Object number (NORAD): 28367

Object ID (CCSDS): 28367

Country: COMMONWEALTH OF INDEPENDENT STATES (CIS)

Current information (Y/N): Y

RCS size: LARGE

Orbital parameters

Period: 103.702 minutes

Inclination: 98.186 deg

SMA: 7311.69 km

Apoapsis: 1189.582 km

Periapsis: 677.527 km

RAAN: 322.3115 deg

Eccentricy: 0.03501615

Argument of periapsis: 38.0232 deg

Mean anomaly: 70.1577 deg

Mean motion: 13.88596719 rev/day

Mean motion (dot): 0.00000165 rev/day2

B* drag term: 0.00010253543 1/REarth

Two-line elements (TLE)

Creation date: Dec. 14, 2025, 3:07 a.m.

Reference frame: TEME

Reference center: EARTH

Epoch: Dec. 13, 2025, 1:48 p.m. UTC

TLE line 0: 0 SL-24 R/B

TLE line 1: 1 28367U 04025B 25347.57536507 .00000165 00000-0 10254-3 0 9993

TLE line 2: 2 28367 98.1860 322.3115 0350161 38.0232 70.1577 13.88596719 87167

Live tracking on map

Real-time ground track for satellite SL-24 R/B.

In-orbit conjunctions

A list of the most updated potential collisions computed for object SL-24 R/B.

Target Orbit TCA Probability of collision Miss distance Type
COSMOS 252 DEB LEO 2025-12-13 15:17:39 0.0001400671 286.0 (m) DEBRIS
CZ-6A DEB LEO 2024-11-13 06:30:38 0.0001630645 491.0 (m) DEBRIS

Associated space launch

AprizeSat, is a constellation of small Low-Earth-Orbit satellites (64 satellites planned) to achieve a global communication system of data transmission and fixed and mobile asset tracking and monitoring (GMPCS).

SL-24 R/B was lifted into orbit during the mission ‘Dnepr | Aprizesat-2’, on board a Dnepr space rocket.

The launch took place on June 29, 2004, 6:30 a.m. from 109/95.

For more information about the launch, click the button.

Launch to space Dnepr | Aprizesat-2
Dnepr | Aprizesat-2

Agency: N/A

Status: Launch Successful

Launch date: June 29, 2004, 6:30 a.m. UTC

Rocket: Dnepr

Launch pad: 109/95

Location: Baikonur Cosmodrome, Republic of Kazakhstan

...

Latest news about this satellite

There are no fresh news available about this satellite. Check back as we update our databases every day.


Newsletter sign-up

Weekly statistics, charts and insights to help you stay on top of the space industry.